Location: Bartshausen
(51.8454°N, 9.8167°E)
Time: 08:48:27
(UTC+00:00)

NOSS 0 Rocket - Pass Details

Date: 08 November 2025
Orbit: 934 x 953 km, 70.0° (Epoch: 11 December)

Event Time Altitude Azimuth Distance (km) Brightness Sun altitude
Rises 04:36:22 0° 206° (SSW) 3,578 6.8 -17.3°
Reaches altitude 10° 04:38:53 10° 205° (SSW) 2,638 6.1 -16.9°
Maximum altitude 04:45:00 80° 119° (ESE) 956 4.0 -16.0°
Drops below altitude 10° 04:51:10 10° 34° (NE) 2,661 6.6 -15.0°
Sets 04:53:42 0° 34° (NNE) 3,611 7.3 -14.7°
